This is the latest recevied weather packets stored in our database for station/object DW9280. If no packets are shown the sender has not sent any weather packets the latest 10 day(s).
| Time | Temp. | Humidity | Pressure | Rain* | Wind** | Luminosity | Snow |
|---|---|---|---|---|---|---|---|
| 1787992013 | 17.78° C | 95% | 1008.8 hPa | 0 mm | - | 98 W/m² | - |
| 1787991589 | 17.78° C | 95% | 1008.7 hPa | 0 mm | - | 162 W/m² | - |
| 1787991290 | 17.78° C | 96% | 1008.7 hPa | 0.51 mm | - | 183 W/m² | - |
| 1787990991 | 17.22° C | 96% | 1008.6 hPa | 1.02 mm | - | 158 W/m² | - |
| 1787990686 | 17.22° C | 96% | 1008.7 hPa | 1.27 mm | - | 193 W/m² | - |
| 1787990510 | 17.22° C | 96% | 1008.7 hPa | 1.52 mm | - | 116 W/m² | - |
| 1787990086 | 17.22° C | 96% | 1008.6 hPa | 1.52 mm | - | 120 W/m² | - |
| 1787989783 | 17.22° C | 96% | 1008.6 hPa | 1.52 mm | - | 97 W/m² | - |
| 1787989484 | 17.22° C | 96% | 1008.6 hPa | 1.52 mm | - | 102 W/m² | - |
| 1787989180 | 17.22° C | 96% | 1008.6 hPa | 1.52 mm | - | 163 W/m² | - |
| 1787988884 | 17.22° C | 96% | 1008.6 hPa | 1.52 mm | - | 186 W/m² | - |
| 1787988700 | 17.22° C | 96% | 1008.4 hPa | 1.52 mm | - | 118 W/m² | - |
| 1787988402 | 16.67° C | 96% | 1008.5 hPa | 1.52 mm | - | 62 W/m² | - |
| 1787987975 | 16.67° C | 96% | 1008.5 hPa | 1.52 mm | - | 51 W/m² | - |
| 1787987676 | 16.67° C | 96% | 1008.5 hPa | 1.02 mm | - | 30 W/m² | - |
| 1787987380 | 16.67° C | 96% | 1008.5 hPa | 0.76 mm | - | 26 W/m² | - |
| 1787987200 | 16.67° C | 96% | 1008.3 hPa | 0.51 mm | - | 18 W/m² | - |
| 1787986777 | 16.67° C | 96% | 1008.3 hPa | 0.76 mm | - | 53 W/m² | - |
| 1787986477 | 16.67° C | 95% | 1008.2 hPa | 0.76 mm | - | 60 W/m² | - |
| 1787986178 | 16.67° C | 95% | 1008.2 hPa | 0.76 mm | - | 39 W/m² | - |
| 1787985877 | 16.67° C | 95% | 1008.1 hPa | 1.27 mm | - | 111 W/m² | - |
| 1787985578 | 16.67° C | 95% | 1008 hPa | 1.52 mm | - | 56 W/m² | - |
| 1787985275 | 16.67° C | 95% | 1008.1 hPa | 1.52 mm | - | 84 W/m² | - |
| 1787984975 | 16.67° C | 95% | 1008 hPa | 1.52 mm | - | 63 W/m² | - |
| 1787984677 | 16.67° C | 95% | 1008.1 hPa | 1.52 mm | - | 42 W/m² | - |
* Rain latest hour (hover to see other rain measurements)
** Current wind speed in m/s (hover to see current wind gust speed)